Tracking 26544 objects as of 9-Dec-2022
HD Live streaming from Space Station
objects crossing your sky now

ATLAS 5 CENTAUR DEB

Track ATLAS 5 CENTAUR DEB now!


NORAD ID: 44642
Int'l Code: 2018-079C
Perigee: 8,140.0 km
Apogee: 35,271.7 km
Inclination: 10.9 °
Period: 780.3 minutes
Semi major axis: 28076 km
RCS: Unknown
Launch date: October 17, 2018
Source: United States (US)
Launch site: AIR FORCE EASTERN TEST RANGE (AFETR)

Note: This is SATELLITE DEBRIS
aabbcc
Your satellite tracking list
Your tracking list is empty




NASA's NSSDC Master Catalog

Two Line Element Set (TLE):
1 44642U 18079C   22342.19266253 -.00000090  00000-0  00000+0 0  9991
2 44642  10.8598 148.0721 4831690 102.9379 313.5199  1.84535944 27898
Source of the keplerian elements: AFSPC